Grand Rapids, MI

1:00 AM EDT on September 16, 2019 (GMT -0400)
Gerald R. Ford International

Weather History for KGRR - July, 2019

Change the Weather History Date:

Friday, July 19, 2019

  Actual Average Record
Temperature  
Mean Temperature 84 °F 73 °F  
Max Temperature 90 °F 83 °F 96 °F (1935)
Min Temperature 77 °F 62 °F 47 °F (1979)
Degree Days  
Heating Degree Days 0 0  
Month to date heating degree days 0 0  
Since 1 June heating degree days 49 45  
Since 1 July heating degree days 0 0  
Cooling Degree Days 19 8  
Month to date cooling degree days 229 149  
Year to date cooling degree days 346 341  
Since 1 June cooling degree days 340 294  
Growing Degree Days 34 (Base 50)    
Moisture  
Dew Point 76 °F    
Average Humidity 78    
Maximum Humidity 91    
Minimum Humidity 64    
Precipitation  
Precipitation T in 0.12 in 1.80 in (1902)
Month to date precipitation 2.68 2.30  
Year to date precipitation 25.61 19.65  
Snow  
Snow 0.00 in 0.00 in 0.00 in (2006)
Month to date snowfall 0.0 0.0  
Since 1 June snowfall 0.0 0.0  
Since 1 July snowfall 0.0 0.0  
Snow Depth 0.00 in    
Sea Level Pressure  
Sea Level Pressure 29.81 in    
Wind  
Wind Speed 11 mph (SW)    
Max Wind Speed 20 mph    
Max Gust Speed 28 mph    
Visibility 10 miles    
Events      
T = Trace of Precipitation, MM = Missing Value Source: NWS Daily Summary

Daily Weather History Graph

Daily Weather History Graph

Search for Another Location

Airport or City:

Astronomy

Jul. 19, 2019 Rise Set
Actual Time 6:20 AM EDT 9:15 PM EDT
Civil Twilight 5:46 AM EDT 9:49 PM EDT
Nautical Twilight 5:03 AM EDT 10:32 PM EDT
Astronomical Twilight 4:13 AM EDT 11:21 PM EDT
Moon 11:10 PM EDT (7/19) 8:48 AM EDT (7/19)
Length of Visible Light 16h 02m
Length of Day
14h 55m
Waning Gibbous, 93% of the Moon is Illuminated
Jul 19
Waning Gibbous
Jul 24
Last Quarter
Jul 31
New
Aug 7
First Quarter
Aug 15
Full

Hourly Weather History & Observations

Time (EDT) Temp. Heat Index Dew Point Humidity Pressure Visibility Wind Dir Wind Speed Gust Speed Precip Events Conditions
12:53 AM 78.1 °F - 73.0 °F 84% 29.80 in 10.0 mi South 4.6 mph - N/A   Mostly Cloudy
1:53 AM 78.1 °F - 73.9 °F 87% 29.80 in 10.0 mi South 4.6 mph - N/A   Mostly Cloudy
2:53 AM 79.0 °F - 75.0 °F 88% 29.79 in 10.0 mi SW 10.4 mph - N/A   Mostly Cloudy
3:53 AM 80.1 °F 85.4 °F 75.9 °F 87% 29.78 in 10.0 mi SW 11.5 mph - N/A   Partly Cloudy
4:53 AM 80.1 °F 85.4 °F 75.9 °F 87% 29.77 in 10.0 mi SW 10.4 mph - N/A   Clear
5:53 AM 80.1 °F 85.4 °F 75.9 °F 87% 29.78 in 9.0 mi SW 12.7 mph - N/A   Mostly Cloudy
6:53 AM 80.1 °F 85.4 °F 75.9 °F 87% 29.79 in 9.0 mi SW 10.4 mph - N/A   Overcast
7:53 AM 81.0 °F 87.3 °F 75.9 °F 85% 29.79 in 10.0 mi SW 13.8 mph - N/A   Overcast
8:53 AM 82.0 °F 89.4 °F 75.9 °F 82% 29.83 in 10.0 mi WSW 13.8 mph 25.3 mph N/A   Overcast
9:13 AM 82.9 °F 91.8 °F 77.0 °F 82% 29.83 in 10.0 mi WSW 11.5 mph - N/A   Overcast
9:42 AM 82.9 °F 91.8 °F 77.0 °F 82% 29.79 in 10.0 mi SSW 9.2 mph - N/A   Overcast
9:53 AM 82.9 °F 90.8 °F 75.9 °F 79% 29.76 in 10.0 mi SSW 8.1 mph - N/A   Overcast
10:53 AM 84.0 °F 93.7 °F 77.0 °F 79% 29.82 in 10.0 mi West 10.4 mph - 0.00 in   Overcast
11:40 AM 84.0 °F 92.6 °F 75.9 °F 76% 29.85 in 9.0 mi WSW 16.1 mph - N/A   Mostly Cloudy
11:53 AM 84.0 °F 92.6 °F 75.9 °F 76% 29.84 in 10.0 mi West 9.2 mph 20.7 mph N/A   Mostly Cloudy
12:53 PM 88.0 °F 98.5 °F 75.9 °F 67% 29.83 in 10.0 mi SW 17.3 mph 23.0 mph N/A   Mostly Cloudy
1:41 PM 88.0 °F 98.5 °F 75.9 °F 67% 29.85 in 10.0 mi WSW 16.1 mph - N/A   Overcast
1:53 PM 87.1 °F 97.3 °F 75.9 °F 69% 29.83 in 10.0 mi WSW 13.8 mph - N/A   Overcast
2:53 PM 88.0 °F 98.5 °F 75.9 °F 67% 29.82 in 10.0 mi WSW 16.1 mph 23.0 mph N/A   Mostly Cloudy
3:40 PM 89.1 °F 101.4 °F 77.0 °F 67% 29.84 in 10.0 mi WSW 17.3 mph 24.2 mph N/A   Mostly Cloudy
3:53 PM 89.1 °F 100.2 °F 75.9 °F 65% 29.82 in 10.0 mi WSW 17.3 mph 25.3 mph N/A   Mostly Cloudy
4:53 PM 88.0 °F 98.5 °F 75.9 °F 67% 29.81 in 10.0 mi West 16.1 mph 23.0 mph N/A   Mostly Cloudy
5:53 PM 88.0 °F 98.5 °F 75.9 °F 67% 29.81 in 10.0 mi WSW 16.1 mph - N/A   Mostly Cloudy
6:53 PM 88.0 °F 98.5 °F 75.9 °F 67% 29.78 in 10.0 mi WSW 11.5 mph - N/A   Overcast
7:53 PM 88.0 °F 100.2 °F 77.0 °F 70% 29.80 in 10.0 mi WSW 8.1 mph - N/A   Overcast
8:53 PM 86.0 °F 98.3 °F 78.1 °F 77% 29.82 in 10.0 mi SSE 4.6 mph - N/A   Mostly Cloudy
9:53 PM 84.0 °F 94.8 °F 78.1 °F 82% 29.84 in 10.0 mi SSE 4.6 mph - N/A   Mostly Cloudy
10:53 PM 82.9 °F 92.8 °F 78.1 °F 85% 29.81 in 10.0 mi South 8.1 mph - N/A   Mostly Cloudy
11:53 PM 84.9 °F 96.6 °F 78.1 °F 80% 29.82 in 10.0 mi SSW 10.4 mph - N/A   Overcast